Year,Month,Day,Hour,Minute,Value (Times are PST for windspeed in km/hr)
2015,05,03,00,00,1.40
2015,05,03,00,01,3.10
2015,05,03,00,02,2.00
2015,05,03,00,03,2.00
2015,05,03,00,04,1.90
2015,05,03,00,05,3.10
2015,05,03,00,06,1.20
2015,05,03,00,07,0.00
2015,05,03,00,08,0.00
2015,05,03,00,09,0.00
2015,05,03,00,10,0.00
2015,05,03,00,11,0.00
2015,05,03,00,12,0.00
2015,05,03,00,13,0.00
2015,05,03,00,14,0.00
2015,05,03,00,15,0.00
2015,05,03,00,16,0.00
2015,05,03,00,17,0.00
2015,05,03,00,18,0.00
2015,05,03,00,19,0.00
2015,05,03,00,20,0.00
2015,05,03,00,21,0.00
2015,05,03,00,22,0.00
2015,05,03,00,23,0.00
2015,05,03,00,24,0.00
2015,05,03,00,25,0.00
2015,05,03,00,26,0.00
2015,05,03,00,27,0.00
2015,05,03,00,28,0.00
2015,05,03,00,29,0.00
2015,05,03,00,30,0.00
2015,05,03,00,31,0.00
2015,05,03,00,32,0.00
2015,05,03,00,33,0.40
2015,05,03,00,34,2.60
2015,05,03,00,35,1.60
2015,05,03,00,36,2.40
2015,05,03,00,37,3.20
2015,05,03,00,38,3.10
2015,05,03,00,39,1.10
2015,05,03,00,40,0.80
2015,05,03,00,41,1.90
2015,05,03,00,42,0.20
2015,05,03,00,43,0.60
2015,05,03,00,44,0.40
2015,05,03,00,45,1.10
2015,05,03,00,46,1.40
2015,05,03,00,47,1.30
2015,05,03,00,48,1.60
2015,05,03,00,49,1.30
2015,05,03,00,50,0.10
2015,05,03,00,51,0.20
2015,05,03,00,52,0.50
2015,05,03,00,53,0.80
2015,05,03,00,54,1.10
2015,05,03,00,55,2.00
2015,05,03,00,56,1.30
2015,05,03,00,57,1.30
2015,05,03,00,58,0.80
2015,05,03,00,59,2.30
2015,05,03,01,00,1.40
2015,05,03,01,01,1.30
2015,05,03,01,02,0.00
2015,05,03,01,03,1.70
2015,05,03,01,04,2.10
2015,05,03,01,05,2.40
2015,05,03,01,06,1.60
2015,05,03,01,07,3.90
2015,05,03,01,08,1.80
2015,05,03,01,09,2.90
2015,05,03,01,10,1.60
2015,05,03,01,11,2.00
2015,05,03,01,12,0.70
2015,05,03,01,13,0.90
2015,05,03,01,14,2.00
2015,05,03,01,15,1.00
2015,05,03,01,16,1.10
2015,05,03,01,17,1.00
2015,05,03,01,18,0.80
2015,05,03,01,19,0.70
2015,05,03,01,20,0.00
2015,05,03,01,21,0.00
2015,05,03,01,22,0.00
2015,05,03,01,23,2.00
2015,05,03,01,24,1.70
2015,05,03,01,25,0.70
2015,05,03,01,26,1.40
2015,05,03,01,27,0.70
2015,05,03,01,28,1.10
2015,05,03,01,29,1.40
2015,05,03,01,30,0.70
2015,05,03,01,31,1.40
2015,05,03,01,32,2.30
2015,05,03,01,33,1.40
2015,05,03,01,34,0.40
2015,05,03,01,35,0.00
2015,05,03,01,36,0.00
2015,05,03,01,37,0.20
2015,05,03,01,38,1.60
2015,05,03,01,39,1.40
2015,05,03,01,40,0.10
2015,05,03,01,41,0.00
2015,05,03,01,42,0.00
2015,05,03,01,43,0.40
2015,05,03,01,44,2.30
2015,05,03,01,45,2.30
2015,05,03,01,46,1.30
2015,05,03,01,47,1.60
2015,05,03,01,48,0.00
2015,05,03,01,49,0.00
2015,05,03,01,50,0.00
2015,05,03,01,51,0.30
2015,05,03,01,52,2.00
2015,05,03,01,53,2.00
2015,05,03,01,54,1.50
2015,05,03,01,55,0.40
2015,05,03,01,56,0.30
2015,05,03,01,57,0.50
2015,05,03,01,58,1.20
2015,05,03,01,59,0.40
2015,05,03,02,00,0.30
2015,05,03,02,01,0.40
2015,05,03,02,02,1.10
2015,05,03,02,03,0.00
2015,05,03,02,04,0.70
2015,05,03,02,05,1.40
2015,05,03,02,06,0.00
2015,05,03,02,07,0.00
2015,05,03,02,08,0.00
2015,05,03,02,09,0.00
2015,05,03,02,10,0.00
2015,05,03,02,11,0.00
2015,05,03,02,12,0.00
2015,05,03,02,13,0.00
2015,05,03,02,14,1.20
2015,05,03,02,15,0.20
2015,05,03,02,16,0.90
2015,05,03,02,17,1.40
2015,05,03,02,18,1.40
2015,05,03,02,19,1.10
2015,05,03,02,20,0.20
2015,05,03,02,21,0.00
2015,05,03,02,22,0.50
2015,05,03,02,23,1.00
2015,05,03,02,24,0.30
2015,05,03,02,25,2.70
2015,05,03,02,26,1.80
2015,05,03,02,27,1.10
2015,05,03,02,28,0.80
2015,05,03,02,29,1.00
2015,05,03,02,30,0.70
2015,05,03,02,31,0.20
2015,05,03,02,32,0.50
2015,05,03,02,33,0.70
2015,05,03,02,34,1.40
2015,05,03,02,35,1.00
2015,05,03,02,36,0.70
2015,05,03,02,37,0.00
2015,05,03,02,38,0.00
2015,05,03,02,39,0.70
2015,05,03,02,40,2.30
2015,05,03,02,41,1.70
2015,05,03,02,42,0.20
2015,05,03,02,43,2.90
2015,05,03,02,44,1.90
2015,05,03,02,45,1.70
2015,05,03,02,46,2.30
2015,05,03,02,47,0.40
2015,05,03,02,48,2.10
2015,05,03,02,49,0.80
2015,05,03,02,50,0.00
2015,05,03,02,51,0.00
2015,05,03,02,52,0.00
2015,05,03,02,53,0.00
2015,05,03,02,54,0.00
2015,05,03,02,55,0.00
2015,05,03,02,56,0.00
2015,05,03,02,57,0.70
2015,05,03,02,58,2.00
2015,05,03,02,59,2.10
2015,05,03,03,00,2.00
2015,05,03,03,01,2.10
2015,05,03,03,02,1.60
2015,05,03,03,03,1.70
2015,05,03,03,04,0.30
2015,05,03,03,05,1.00
2015,05,03,03,06,2.50
2015,05,03,03,07,1.70
2015,05,03,03,08,1.20
2015,05,03,03,09,1.00
2015,05,03,03,10,0.70
2015,05,03,03,11,0.40
2015,05,03,03,12,0.80
2015,05,03,03,13,2.70
2015,05,03,03,14,2.40
2015,05,03,03,15,0.50
2015,05,03,03,16,0.00
2015,05,03,03,17,1.00
2015,05,03,03,18,0.40
2015,05,03,03,19,1.20
2015,05,03,03,20,1.80
2015,05,03,03,21,1.00
2015,05,03,03,22,1.30
2015,05,03,03,23,0.80
2015,05,03,03,24,0.70
2015,05,03,03,25,1.90
2015,05,03,03,26,1.60
2015,05,03,03,27,1.30
2015,05,03,03,28,1.90
2015,05,03,03,29,1.70
2015,05,03,03,30,2.10
2015,05,03,03,31,2.60
2015,05,03,03,32,0.80
2015,05,03,03,33,0.10
2015,05,03,03,34,0.30
2015,05,03,03,35,0.20
2015,05,03,03,36,0.20
2015,05,03,03,37,0.40
2015,05,03,03,38,1.00
2015,05,03,03,39,2.20
2015,05,03,03,40,1.80
2015,05,03,03,41,1.80
2015,05,03,03,42,1.00
2015,05,03,03,43,1.30
2015,05,03,03,44,1.30
2015,05,03,03,45,1.50
2015,05,03,03,46,0.10
2015,05,03,03,47,0.60
2015,05,03,03,48,0.80
2015,05,03,03,49,0.70
2015,05,03,03,50,0.60
2015,05,03,03,51,0.90
2015,05,03,03,52,1.00
2015,05,03,03,53,0.00
2015,05,03,03,54,0.10
2015,05,03,03,55,0.00
2015,05,03,03,56,0.00
2015,05,03,03,57,0.00
2015,05,03,03,58,0.00
2015,05,03,03,59,0.70
2015,05,03,04,00,1.70
2015,05,03,04,01,0.10
2015,05,03,04,02,0.00
2015,05,03,04,03,0.40
2015,05,03,04,04,0.00
2015,05,03,04,05,1.50
2015,05,03,04,06,0.90
2015,05,03,04,07,0.30
2015,05,03,04,08,0.30
2015,05,03,04,09,0.90
2015,05,03,04,10,0.00
2015,05,03,04,11,0.80
2015,05,03,04,12,0.20
2015,05,03,04,13,4.20
2015,05,03,04,14,1.80
2015,05,03,04,15,1.40
2015,05,03,04,16,1.80
2015,05,03,04,17,0.10
2015,05,03,04,18,0.70
2015,05,03,04,19,0.40
2015,05,03,04,20,0.00
2015,05,03,04,21,0.00
2015,05,03,04,22,0.00
2015,05,03,04,23,0.00
2015,05,03,04,24,2.10
2015,05,03,04,25,0.10
2015,05,03,04,26,0.70
2015,05,03,04,27,0.70
2015,05,03,04,28,0.00
2015,05,03,04,29,0.70
2015,05,03,04,30,0.70
2015,05,03,04,31,0.90
2015,05,03,04,32,1.50
2015,05,03,04,33,2.60
2015,05,03,04,34,1.30
2015,05,03,04,35,3.20
2015,05,03,04,36,2.60
2015,05,03,04,37,1.80
2015,05,03,04,38,1.50
2015,05,03,04,39,0.50
2015,05,03,04,40,0.40
2015,05,03,04,41,1.10
2015,05,03,04,42,1.70
2015,05,03,04,43,1.60
2015,05,03,04,44,0.00
2015,05,03,04,45,1.10
2015,05,03,04,46,1.00
2015,05,03,04,47,1.70
2015,05,03,04,48,1.30
2015,05,03,04,49,1.40
2015,05,03,04,50,0.80
2015,05,03,04,51,1.00
2015,05,03,04,52,0.20
2015,05,03,04,53,1.30
2015,05,03,04,54,1.10
2015,05,03,04,55,0.30
2015,05,03,04,56,0.00
2015,05,03,04,57,0.00
2015,05,03,04,58,0.00
2015,05,03,04,59,0.70
2015,05,03,05,00,0.00
2015,05,03,05,01,0.00
2015,05,03,05,02,0.30
2015,05,03,05,03,0.00
2015,05,03,05,04,0.70
2015,05,03,05,05,0.00
2015,05,03,05,06,0.00
2015,05,03,05,07,1.50
2015,05,03,05,08,0.00
2015,05,03,05,09,0.20
2015,05,03,05,10,1.70
2015,05,03,05,11,0.80
2015,05,03,05,12,0.90
2015,05,03,05,13,0.00
2015,05,03,05,14,1.80
2015,05,03,05,15,1.70
2015,05,03,05,16,0.30
2015,05,03,05,17,0.00
2015,05,03,05,18,1.50
2015,05,03,05,19,2.70
2015,05,03,05,20,2.80
2015,05,03,05,21,1.50
2015,05,03,05,22,1.40
2015,05,03,05,23,0.70
2015,05,03,05,24,1.00
2015,05,03,05,25,1.10
2015,05,03,05,26,2.90
2015,05,03,05,27,2.40
2015,05,03,05,28,1.30
2015,05,03,05,29,2.20
2015,05,03,05,30,2.00
2015,05,03,05,31,0.50
2015,05,03,05,32,1.60
2015,05,03,05,33,1.30
2015,05,03,05,34,5.80
2015,05,03,05,35,0.20
2015,05,03,05,36,1.00
2015,05,03,05,37,2.40
2015,05,03,05,38,2.30
2015,05,03,05,39,0.70
2015,05,03,05,40,1.20
2015,05,03,05,41,1.00
2015,05,03,05,42,0.30
2015,05,03,05,43,1.20
2015,05,03,05,44,2.40
2015,05,03,05,45,1.10
2015,05,03,05,46,0.20
2015,05,03,05,47,3.60
2015,05,03,05,48,3.20
2015,05,03,05,49,2.30
2015,05,03,05,50,2.90
2015,05,03,05,51,2.90
2015,05,03,05,52,3.20
2015,05,03,05,53,2.30
2015,05,03,05,54,3.00
2015,05,03,05,55,1.90
2015,05,03,05,56,3.10
2015,05,03,05,57,3.90
2015,05,03,05,58,3.80
2015,05,03,05,59,1.80
2015,05,03,06,00,1.60
2015,05,03,06,01,2.50
2015,05,03,06,02,1.40
2015,05,03,06,03,1.10
2015,05,03,06,04,0.40
2015,05,03,06,05,1.20
2015,05,03,06,06,0.00
2015,05,03,06,07,1.00
2015,05,03,06,08,1.40
2015,05,03,06,09,2.80
2015,05,03,06,10,1.70
2015,05,03,06,11,2.50
2015,05,03,06,12,3.40
2015,05,03,06,13,3.50
2015,05,03,06,14,3.90
2015,05,03,06,15,3.90
2015,05,03,06,16,4.10
2015,05,03,06,17,4.90
2015,05,03,06,18,3.70
2015,05,03,06,19,4.00
2015,05,03,06,20,5.10
2015,05,03,06,21,3.20
2015,05,03,06,22,2.70
2015,05,03,06,23,2.90
2015,05,03,06,24,1.30
2015,05,03,06,25,2.80
2015,05,03,06,26,2.60
2015,05,03,06,27,2.90
2015,05,03,06,28,2.00
2015,05,03,06,29,3.70
2015,05,03,06,30,2.10
2015,05,03,06,31,0.70
2015,05,03,06,32,1.70
2015,05,03,06,33,1.90
2015,05,03,06,34,1.70
2015,05,03,06,35,1.60
2015,05,03,06,36,0.90
2015,05,03,06,37,1.60
2015,05,03,06,38,1.20
2015,05,03,06,39,0.10
2015,05,03,06,40,0.00
2015,05,03,06,41,0.00
2015,05,03,06,42,0.00
2015,05,03,06,43,0.00
2015,05,03,06,44,0.00
2015,05,03,06,45,0.00
2015,05,03,06,46,0.00
2015,05,03,06,47,0.00
2015,05,03,06,48,0.00
2015,05,03,06,49,0.00
2015,05,03,06,50,0.00
2015,05,03,06,51,0.50
2015,05,03,06,52,0.60
2015,05,03,06,53,1.10
2015,05,03,06,54,1.00
2015,05,03,06,55,1.20
2015,05,03,06,56,0.30
2015,05,03,06,57,0.60
2015,05,03,06,58,0.50
2015,05,03,06,59,0.70
2015,05,03,07,00,0.00
2015,05,03,07,01,0.40
2015,05,03,07,02,2.10
2015,05,03,07,03,2.10
2015,05,03,07,04,1.00
2015,05,03,07,05,1.20
2015,05,03,07,06,2.00
2015,05,03,07,07,0.40
2015,05,03,07,08,0.00
2015,05,03,07,09,0.00
2015,05,03,07,10,0.00
2015,05,03,07,11,0.00
2015,05,03,07,12,0.40
2015,05,03,07,13,2.00
2015,05,03,07,14,1.70
2015,05,03,07,15,3.60
2015,05,03,07,16,1.50
2015,05,03,07,17,1.10
2015,05,03,07,18,2.00
2015,05,03,07,19,1.70
2015,05,03,07,20,0.70
2015,05,03,07,21,2.20
2015,05,03,07,22,3.00
2015,05,03,07,23,2.50
2015,05,03,07,24,1.60
2015,05,03,07,25,0.50
2015,05,03,07,26,1.80
2015,05,03,07,27,1.40
2015,05,03,07,28,2.80
2015,05,03,07,29,2.50
2015,05,03,07,30,3.10
2015,05,03,07,31,3.00
2015,05,03,07,32,5.50
2015,05,03,07,33,3.90
2015,05,03,07,34,3.60
2015,05,03,07,35,2.40
2015,05,03,07,36,0.60
2015,05,03,07,37,2.50
2015,05,03,07,38,3.50
2015,05,03,07,39,5.70
2015,05,03,07,40,4.80
2015,05,03,07,41,3.60
2015,05,03,07,42,3.10
2015,05,03,07,43,3.90
2015,05,03,07,44,3.20
2015,05,03,07,45,3.20
2015,05,03,07,46,5.90
2015,05,03,07,47,3.90
2015,05,03,07,48,2.70
2015,05,03,07,49,2.20
2015,05,03,07,50,3.30
2015,05,03,07,51,3.70
2015,05,03,07,52,2.70
2015,05,03,07,53,5.40
2015,05,03,07,54,6.00
2015,05,03,07,55,5.10
2015,05,03,07,56,6.10
2015,05,03,07,57,4.00
2015,05,03,07,58,2.00
2015,05,03,07,59,3.30
2015,05,03,08,00,2.90
2015,05,03,08,01,3.30
2015,05,03,08,02,2.10
2015,05,03,08,03,3.70
2015,05,03,08,04,4.40
2015,05,03,08,05,3.80
2015,05,03,08,06,5.20
2015,05,03,08,07,4.90
2015,05,03,08,08,4.60
2015,05,03,08,09,4.70
2015,05,03,08,10,5.20
2015,05,03,08,11,4.50
2015,05,03,08,12,3.50
2015,05,03,08,13,5.60
2015,05,03,08,14,3.80
2015,05,03,08,15,4.90
2015,05,03,08,16,2.60
2015,05,03,08,17,2.50
2015,05,03,08,18,4.70
2015,05,03,08,19,4.20
2015,05,03,08,20,2.10
2015,05,03,08,21,2.10
2015,05,03,08,22,1.90
2015,05,03,08,23,2.60
2015,05,03,08,24,1.40
2015,05,03,08,25,2.30
2015,05,03,08,26,3.80
2015,05,03,08,27,2.30
2015,05,03,08,28,3.50
2015,05,03,08,29,4.10
2015,05,03,08,30,3.40
2015,05,03,08,31,2.30
2015,05,03,08,32,2.20
2015,05,03,08,33,2.00
2015,05,03,08,34,2.90
2015,05,03,08,35,4.20
2015,05,03,08,36,1.90
2015,05,03,08,37,0.30
2015,05,03,08,38,0.20
2015,05,03,08,39,4.80
2015,05,03,08,40,3.90
2015,05,03,08,41,3.60
2015,05,03,08,42,0.90
2015,05,03,08,43,3.20
2015,05,03,08,44,2.40
2015,05,03,08,45,2.10
2015,05,03,08,46,1.80
2015,05,03,08,47,2.40
2015,05,03,08,48,1.80
2015,05,03,08,49,0.40
2015,05,03,08,50,1.80
2015,05,03,08,51,3.70
2015,05,03,08,52,4.10
2015,05,03,08,53,2.90
2015,05,03,08,54,2.90
2015,05,03,08,55,1.00
2015,05,03,08,56,1.90
2015,05,03,08,57,1.70
2015,05,03,08,58,0.50
2015,05,03,08,59,0.80
2015,05,03,09,00,3.30
2015,05,03,09,01,3.20
2015,05,03,09,02,5.90
2015,05,03,09,03,3.30
2015,05,03,09,04,4.10
2015,05,03,09,05,6.00
2015,05,03,09,06,5.50
2015,05,03,09,07,3.70
2015,05,03,09,08,4.00
2015,05,03,09,09,5.70
2015,05,03,09,10,6.00
2015,05,03,09,11,2.80
2015,05,03,09,12,2.80
2015,05,03,09,13,5.80
2015,05,03,09,14,5.70
2015,05,03,09,15,3.40
2015,05,03,09,16,4.20
2015,05,03,09,17,2.50
2015,05,03,09,18,6.20
2015,05,03,09,19,6.60
2015,05,03,09,20,3.70
2015,05,03,09,21,4.00
2015,05,03,09,22,4.50
2015,05,03,09,23,8.60
2015,05,03,09,24,6.70
2015,05,03,09,25,3.20
2015,05,03,09,26,1.40
2015,05,03,09,27,1.90
2015,05,03,09,28,2.30
2015,05,03,09,29,1.30
2015,05,03,09,30,6.30
2015,05,03,09,31,7.00
2015,05,03,09,32,8.10
2015,05,03,09,33,6.00
2015,05,03,09,34,5.40
2015,05,03,09,35,6.00
2015,05,03,09,36,6.30
2015,05,03,09,37,8.30
2015,05,03,09,38,7.00
2015,05,03,09,39,5.60
2015,05,03,09,40,5.50
2015,05,03,09,41,5.10
2015,05,03,09,42,2.70
2015,05,03,09,43,2.30
2015,05,03,09,44,4.50
2015,05,03,09,45,3.90
2015,05,03,09,46,3.40
2015,05,03,09,47,3.80
2015,05,03,09,48,7.60
2015,05,03,09,49,10.80
2015,05,03,09,50,6.00
2015,05,03,09,51,5.10
2015,05,03,09,52,6.60
2015,05,03,09,53,6.90
2015,05,03,09,54,5.10
2015,05,03,09,55,6.40
2015,05,03,09,56,4.60
2015,05,03,09,57,4.80
2015,05,03,09,58,6.90
2015,05,03,09,59,5.50
2015,05,03,10,00,6.50
2015,05,03,10,01,5.40
2015,05,03,10,02,5.00
2015,05,03,10,03,5.80
2015,05,03,10,04,5.80
2015,05,03,10,05,7.00
2015,05,03,10,06,7.60
2015,05,03,10,07,6.30
2015,05,03,10,08,7.40
2015,05,03,10,09,6.20
2015,05,03,10,10,7.30
2015,05,03,10,11,4.10
2015,05,03,10,12,5.90
2015,05,03,10,13,5.50
2015,05,03,10,14,6.30
2015,05,03,10,15,7.20
2015,05,03,10,16,6.60
2015,05,03,10,17,6.20
2015,05,03,10,18,3.60
2015,05,03,10,19,5.20
2015,05,03,10,20,3.30
2015,05,03,10,21,2.20
2015,05,03,10,22,7.00
2015,05,03,10,23,5.80
2015,05,03,10,24,4.10
2015,05,03,10,25,6.30
2015,05,03,10,26,2.00
2015,05,03,10,27,2.70
2015,05,03,10,28,4.60
2015,05,03,10,29,2.40
2015,05,03,10,30,6.00
2015,05,03,10,31,5.10
2015,05,03,10,32,2.70
2015,05,03,10,33,4.20
2015,05,03,10,34,5.50
2015,05,03,10,35,5.20
2015,05,03,10,36,4.80
2015,05,03,10,37,6.20
2015,05,03,10,38,3.60
2015,05,03,10,39,9.20
2015,05,03,10,40,5.00
2015,05,03,10,41,5.20
2015,05,03,10,42,5.70
2015,05,03,10,43,5.20
2015,05,03,10,44,5.50
2015,05,03,10,45,4.70
2015,05,03,10,46,7.50
2015,05,03,10,47,4.40
2015,05,03,10,48,3.60
2015,05,03,10,49,3.50
2015,05,03,10,50,3.60
2015,05,03,10,51,1.60
2015,05,03,10,52,2.90
2015,05,03,10,53,1.50
2015,05,03,10,54,3.40
2015,05,03,10,55,2.60
2015,05,03,10,56,3.30
2015,05,03,10,57,5.50
2015,05,03,10,58,5.60
2015,05,03,10,59,1.70
2015,05,03,11,00,2.60
2015,05,03,11,01,1.40
2015,05,03,11,02,6.30
2015,05,03,11,03,6.20
2015,05,03,11,04,5.80
2015,05,03,11,05,3.20
2015,05,03,11,06,4.10
2015,05,03,11,07,4.20
2015,05,03,11,08,1.80
2015,05,03,11,09,2.80
2015,05,03,11,10,5.80
2015,05,03,11,11,5.20
2015,05,03,11,12,2.70
2015,05,03,11,13,4.10
2015,05,03,11,14,2.60
2015,05,03,11,15,4.50
2015,05,03,11,16,5.80
2015,05,03,11,17,5.20
2015,05,03,11,18,3.10
2015,05,03,11,19,6.00
2015,05,03,11,20,5.20
2015,05,03,11,21,4.90
2015,05,03,11,22,3.30
2015,05,03,11,23,3.00
2015,05,03,11,24,4.60
2015,05,03,11,25,5.60
2015,05,03,11,26,6.00
2015,05,03,11,27,7.80
2015,05,03,11,28,4.30
2015,05,03,11,29,3.80
2015,05,03,11,30,4.80
2015,05,03,11,31,6.60
2015,05,03,11,32,7.20
2015,05,03,11,33,7.00
2015,05,03,11,34,6.20
2015,05,03,11,35,3.70
2015,05,03,11,36,4.60
2015,05,03,11,37,7.20
2015,05,03,11,38,4.50
2015,05,03,11,39,2.10
2015,05,03,11,40,6.00
2015,05,03,11,41,5.80
2015,05,03,11,42,5.30
2015,05,03,11,43,4.90
2015,05,03,11,44,4.40
2015,05,03,11,45,4.20
2015,05,03,11,46,3.40
2015,05,03,11,47,4.50
2015,05,03,11,48,6.90
2015,05,03,11,49,5.50
2015,05,03,11,50,5.90
2015,05,03,11,51,5.20
2015,05,03,11,52,5.80
2015,05,03,11,53,5.10
2015,05,03,11,54,2.90
2015,05,03,11,55,5.50
2015,05,03,11,56,7.90
2015,05,03,11,57,4.20
2015,05,03,11,58,6.20
2015,05,03,11,59,4.30
2015,05,03,12,00,2.70
2015,05,03,12,01,1.10
2015,05,03,12,02,1.20
2015,05,03,12,03,3.00
2015,05,03,12,04,1.70
2015,05,03,12,05,4.20
2015,05,03,12,06,7.60
2015,05,03,12,07,6.50
2015,05,03,12,08,5.20
2015,05,03,12,09,3.20
2015,05,03,12,10,6.20
2015,05,03,12,11,7.20
2015,05,03,12,12,8.10
2015,05,03,12,13,5.40
2015,05,03,12,14,6.00
2015,05,03,12,15,5.80
2015,05,03,12,16,5.30
2015,05,03,12,17,6.30
2015,05,03,12,18,5.20
2015,05,03,12,19,7.20
2015,05,03,12,20,5.80
2015,05,03,12,21,4.20
2015,05,03,12,22,2.20
2015,05,03,12,23,8.30
2015,05,03,12,24,7.30
2015,05,03,12,25,4.90
2015,05,03,12,26,2.40
2015,05,03,12,27,2.70
2015,05,03,12,28,3.50
2015,05,03,12,29,2.80
2015,05,03,12,30,6.00
2015,05,03,12,31,5.10
2015,05,03,12,32,4.90
2015,05,03,12,33,6.50
2015,05,03,12,34,3.40
2015,05,03,12,35,3.70
2015,05,03,12,36,5.40
2015,05,03,12,37,5.20
2015,05,03,12,38,6.00
2015,05,03,12,39,7.20
2015,05,03,12,40,6.20
2015,05,03,12,41,3.60
2015,05,03,12,42,5.50
2015,05,03,12,43,9.80
2015,05,03,12,44,4.80
2015,05,03,12,45,2.60
2015,05,03,12,46,3.00
2015,05,03,12,47,3.00
2015,05,03,12,48,3.30
2015,05,03,12,49,4.70
2015,05,03,12,50,6.90
2015,05,03,12,51,8.00
2015,05,03,12,52,2.70
2015,05,03,12,53,2.60
2015,05,03,12,54,2.90
2015,05,03,12,55,6.40
2015,05,03,12,56,4.10
2015,05,03,12,57,4.50
2015,05,03,12,58,3.80
2015,05,03,12,59,2.20
2015,05,03,13,00,2.60
2015,05,03,13,01,4.00
2015,05,03,13,02,7.40
2015,05,03,13,03,3.00
2015,05,03,13,04,4.70
2015,05,03,13,05,6.30
2015,05,03,13,06,4.90
2015,05,03,13,07,6.40
2015,05,03,13,08,4.80
2015,05,03,13,09,4.50
2015,05,03,13,10,4.60
2015,05,03,13,11,6.70
2015,05,03,13,12,6.60
2015,05,03,13,13,3.40
2015,05,03,13,14,5.50
2015,05,03,13,15,6.70
2015,05,03,13,16,3.70
2015,05,03,13,17,7.10
2015,05,03,13,18,3.30
2015,05,03,13,19,8.20
2015,05,03,13,20,4.20
2015,05,03,13,21,8.00
2015,05,03,13,22,6.00
2015,05,03,13,23,6.10
2015,05,03,13,24,5.40
2015,05,03,13,25,7.00
2015,05,03,13,26,5.20
2015,05,03,13,27,3.10
2015,05,03,13,28,1.60
2015,05,03,13,29,6.20
2015,05,03,13,30,10.60
2015,05,03,13,31,10.40
2015,05,03,13,32,9.00
2015,05,03,13,33,5.30
2015,05,03,13,34,6.30
2015,05,03,13,35,8.50
2015,05,03,13,36,6.00
2015,05,03,13,37,2.70
2015,05,03,13,38,2.90
2015,05,03,13,39,7.00
2015,05,03,13,40,7.00
2015,05,03,13,41,4.20
2015,05,03,13,42,10.60
2015,05,03,13,43,6.60
2015,05,03,13,44,5.80
2015,05,03,13,45,6.40
2015,05,03,13,46,8.30
2015,05,03,13,47,6.80
2015,05,03,13,48,5.90
2015,05,03,13,49,4.60
2015,05,03,13,50,5.20
2015,05,03,13,51,6.60
2015,05,03,13,52,4.40
2015,05,03,13,53,6.10
2015,05,03,13,54,12.00
2015,05,03,13,55,7.60
2015,05,03,13,56,3.10
2015,05,03,13,57,5.20
2015,05,03,13,58,7.90
2015,05,03,13,59,5.50
2015,05,03,14,00,4.00
2015,05,03,14,01,8.00
2015,05,03,14,02,2.50
2015,05,03,14,03,7.00
2015,05,03,14,04,6.80
2015,05,03,14,05,7.50
2015,05,03,14,06,8.50
2015,05,03,14,07,10.30
2015,05,03,14,08,4.60
2015,05,03,14,09,4.80
2015,05,03,14,10,3.90
2015,05,03,14,11,10.00
2015,05,03,14,12,7.80
2015,05,03,14,13,4.80
2015,05,03,14,14,3.90
2015,05,03,14,15,7.70
2015,05,03,14,16,4.30
2015,05,03,14,17,5.20
2015,05,03,14,18,4.50
2015,05,03,14,19,6.00
2015,05,03,14,20,8.90
2015,05,03,14,21,4.30
2015,05,03,14,22,3.70
2015,05,03,14,23,6.80
2015,05,03,14,24,5.40
2015,05,03,14,25,4.20
2015,05,03,14,26,1.90
2015,05,03,14,27,4.70
2015,05,03,14,28,7.80
2015,05,03,14,29,4.80
2015,05,03,14,30,4.90
2015,05,03,14,31,4.60
2015,05,03,14,32,7.30
2015,05,03,14,33,8.00
2015,05,03,14,34,6.20
2015,05,03,14,35,9.50
2015,05,03,14,36,10.20
2015,05,03,14,37,10.30
2015,05,03,14,38,6.60
2015,05,03,14,39,5.50
2015,05,03,14,40,7.70
2015,05,03,14,41,4.80
2015,05,03,14,42,8.90
2015,05,03,14,43,6.60
2015,05,03,14,44,6.70
2015,05,03,14,45,6.30
2015,05,03,14,46,7.50
2015,05,03,14,47,4.70
2015,05,03,14,48,5.80
2015,05,03,14,49,7.40
2015,05,03,14,50,3.50
2015,05,03,14,51,6.90
2015,05,03,14,52,4.80
2015,05,03,14,53,5.20
2015,05,03,14,54,5.80
2015,05,03,14,55,5.70
2015,05,03,14,56,9.70
2015,05,03,14,57,6.00
2015,05,03,14,58,4.00
2015,05,03,14,59,6.10
2015,05,03,15,00,6.40
2015,05,03,15,01,4.80
2015,05,03,15,02,6.60
2015,05,03,15,03,9.50
2015,05,03,15,04,8.10
2015,05,03,15,05,8.50
2015,05,03,15,06,11.60
2015,05,03,15,07,8.70
2015,05,03,15,08,11.50
2015,05,03,15,09,6.60
2015,05,03,15,10,6.70
2015,05,03,15,11,9.00
2015,05,03,15,12,10.70
2015,05,03,15,13,8.80
2015,05,03,15,14,6.70
2015,05,03,15,15,7.90
2015,05,03,15,16,5.00
2015,05,03,15,17,7.90
2015,05,03,15,18,11.40
2015,05,03,15,19,9.40
2015,05,03,15,20,7.60
2015,05,03,15,21,7.00
2015,05,03,15,22,4.80
2015,05,03,15,23,8.30
2015,05,03,15,24,8.40
2015,05,03,15,25,10.20
2015,05,03,15,26,7.70
2015,05,03,15,27,6.00
2015,05,03,15,28,6.30
2015,05,03,15,29,3.70
2015,05,03,15,30,3.80
2015,05,03,15,31,2.40
2015,05,03,15,32,4.90
2015,05,03,15,33,4.90
2015,05,03,15,34,6.70
2015,05,03,15,35,4.70
2015,05,03,15,36,1.30
2015,05,03,15,37,3.50
2015,05,03,15,38,3.30
2015,05,03,15,39,6.60
2015,05,03,15,40,5.10
2015,05,03,15,41,4.40
2015,05,03,15,42,3.20
2015,05,03,15,43,4.30
2015,05,03,15,44,5.40
2015,05,03,15,45,1.20
2015,05,03,15,46,2.80
2015,05,03,15,47,3.80
2015,05,03,15,48,5.10
2015,05,03,15,49,3.00
2015,05,03,15,50,3.30
2015,05,03,15,51,5.70
2015,05,03,15,52,7.60
2015,05,03,15,53,7.60
2015,05,03,15,54,10.10
2015,05,03,15,55,8.10
2015,05,03,15,56,9.50
2015,05,03,15,57,9.20
2015,05,03,15,58,5.00
2015,05,03,15,59,2.70
2015,05,03,16,00,2.10
2015,05,03,16,01,6.10
2015,05,03,16,02,7.20
2015,05,03,16,03,4.40
2015,05,03,16,04,3.70
2015,05,03,16,05,3.20
2015,05,03,16,06,5.10
2015,05,03,16,07,7.30
2015,05,03,16,08,5.70
2015,05,03,16,09,6.60
2015,05,03,16,10,5.70
2015,05,03,16,11,7.20
2015,05,03,16,12,6.40
2015,05,03,16,13,7.70
2015,05,03,16,14,6.20
2015,05,03,16,15,4.50
2015,05,03,16,16,3.00
2015,05,03,16,17,5.10
2015,05,03,16,18,6.30
2015,05,03,16,19,6.60
2015,05,03,16,20,5.40
2015,05,03,16,21,5.20
2015,05,03,16,22,6.80
2015,05,03,16,23,4.80
2015,05,03,16,24,3.20
2015,05,03,16,25,3.50
2015,05,03,16,26,5.30
2015,05,03,16,27,4.60
2015,05,03,16,28,4.50
2015,05,03,16,29,8.10
2015,05,03,16,30,8.50
2015,05,03,16,31,6.80
2015,05,03,16,32,5.40
2015,05,03,16,33,4.10
2015,05,03,16,34,6.10
2015,05,03,16,35,9.40
2015,05,03,16,36,7.20
2015,05,03,16,37,6.90
2015,05,03,16,38,5.70
2015,05,03,16,39,2.10
2015,05,03,16,40,1.80
2015,05,03,16,41,4.40
2015,05,03,16,42,5.50
2015,05,03,16,43,2.00
2015,05,03,16,44,4.80
2015,05,03,16,45,5.10
2015,05,03,16,46,5.10
2015,05,03,16,47,3.00
2015,05,03,16,48,5.40
2015,05,03,16,49,4.10
2015,05,03,16,50,5.10
2015,05,03,16,51,2.50
2015,05,03,16,52,3.60
2015,05,03,16,53,4.80
2015,05,03,16,54,4.30
2015,05,03,16,55,3.10
2015,05,03,16,56,1.70
2015,05,03,16,57,5.40
2015,05,03,16,58,5.70
2015,05,03,16,59,4.50
2015,05,03,17,00,4.80
2015,05,03,17,01,5.70
2015,05,03,17,02,2.50
2015,05,03,17,03,3.40
2015,05,03,17,04,2.20
2015,05,03,17,05,3.60
2015,05,03,17,06,3.50
2015,05,03,17,07,6.30
2015,05,03,17,08,6.10
2015,05,03,17,09,1.70
2015,05,03,17,10,2.60
2015,05,03,17,11,2.70
2015,05,03,17,12,6.40
2015,05,03,17,13,4.10
2015,05,03,17,14,5.60
2015,05,03,17,15,5.70
2015,05,03,17,16,4.00
2015,05,03,17,17,1.70
2015,05,03,17,18,3.50
2015,05,03,17,19,7.70
2015,05,03,17,20,5.10
2015,05,03,17,21,2.90
2015,05,03,17,22,4.80
2015,05,03,17,23,3.00
2015,05,03,17,24,4.00
2015,05,03,17,25,7.50
2015,05,03,17,26,7.60
2015,05,03,17,27,4.60
2015,05,03,17,28,8.10
2015,05,03,17,29,7.20
2015,05,03,17,30,6.60
2015,05,03,17,31,7.20
2015,05,03,17,32,3.60
2015,05,03,17,33,4.60
2015,05,03,17,34,2.50
2015,05,03,17,35,4.20
2015,05,03,17,36,5.80
2015,05,03,17,37,5.60
2015,05,03,17,38,5.40
2015,05,03,17,39,4.90
2015,05,03,17,40,5.10
2015,05,03,17,41,7.40
2015,05,03,17,42,4.90
2015,05,03,17,43,3.40
2015,05,03,17,44,2.00
2015,05,03,17,45,3.00
2015,05,03,17,46,3.40
2015,05,03,17,47,1.70
2015,05,03,17,48,2.40
2015,05,03,17,49,3.60
2015,05,03,17,50,4.60
2015,05,03,17,51,2.60
2015,05,03,17,52,5.30
2015,05,03,17,53,3.70
2015,05,03,17,54,3.00
2015,05,03,17,55,3.20
2015,05,03,17,56,2.10
2015,05,03,17,57,1.10
2015,05,03,17,58,2.10
2015,05,03,17,59,3.80
2015,05,03,18,00,3.50
2015,05,03,18,01,3.10
2015,05,03,18,02,4.70
2015,05,03,18,03,6.30
2015,05,03,18,04,4.90
2015,05,03,18,05,3.80